Tracking 25995 objects as of 19-Aug-2022
HD Live streaming from Space Station
objects crossing your sky now

THOR ABLESTAR DEB

Track THOR ABLESTAR DEB now!
10-day predictions


NORAD ID: 119
Int'l Code: 1961-015D
Perigee: 742.4 km
Apogee: 897.6 km
Inclination: 66.7 °
Period: 101.1 minutes
Semi major axis: 7190 km
RCS: 0.2611 m2 (medium)
Launch date: June 29, 1961
Source: United States (US)
Launch site: AIR FORCE EASTERN TEST RANGE (AFETR)

Note: This is SATELLITE DEBRIS
aabbcc
Your satellite tracking list
Your tracking list is empty




NASA's NSSDC Master Catalog

Two Line Element Set (TLE):
1 00119U 61015D   22230.92559936  .00000276  00000-0  14826-3 0  9990
2 00119  66.7284  55.1889 0107866 196.1253 163.6401 14.23705765159036
Source of the keplerian elements: AFSPC